START_TIME,STEP,MOV.,H8,t_acc.,H43,t_acc.,M25,t_acc.,H9,t_acc.
1979-07-06 12:00:30.180 ,0,0,1.,12.0,0.,12.0,0.,12.0,0.,12.0
1979-07-06 12:00:42.180 ,0,0,0.,12.0,0.,12.0,0.,12.0,0.,12.0
1979-07-06 12:00:54.180 ,1,0,2.,12.0,0.,12.0,0.,12.0,0.,12.0
1979-07-06 12:01:06.180 ,1,0,1.,12.0,0.,12.0,0.,12.0,0.,12.0
1979-07-06 12:01:18.180 ,1,0,2.,12.0,0.,12.0,0.,12.0,0.,12.0
1979-07-06 12:01:30.180 ,1,0,0.,12.0,0.,12.0,0.,12.0,0.,12.0
1979-07-06 12:01:42.180 ,2,0,0.,12.0,0.,12.0,0.,12.0,0.,12.0
1979-07-06 12:01:54.180 ,2,0,1.,12.0,0.,12.0,0.,12.0,0.,12.0
1979-07-06 12:02:06.180 ,2,0,0.,12.0,0.,12.0,0.,12.0,0.,12.0
1979-07-06 12:02:18.180 ,2,0,1.,12.0,0.,12.0,0.,12.0,0.,12.0
1979-07-06 12:02:30.180 ,3,0,0.,12.0,0.,12.0,0.,12.0,0.,12.0
1979-07-06 12:02:42.180 ,3,0,2.,12.0,0.,12.0,0.,12.0,0.,12.0
1979-07-06 12:02:54.180 ,3,0,1.,12.0,0.,12.0,0.,12.0,0.,12.0
1979-07-06 12:03:06.180 ,3,0,1.,12.0,0.,12.0,0.,12.0,0.,12.0
1979-07-06 12:03:18.180 ,4,0,0.,12.0,0.,12.0,0.,12.0,0.,12.0
1979-07-06 12:03:30.180 ,4,0,1.,12.0,0.,12.0,0.,12.0,0.,12.0
1979-07-06 12:03:42.180 ,4,0,3.,12.0,0.,12.0,0.,12.0,0.,12.0
1979-07-06 12:03:54.180 ,4,0,4.,12.0,0.,12.0,0.,12.0,0.,12.0
1979-07-06 12:04:06.180 ,5,0,1.,12.0,0.,12.0,0.,12.0,0.,12.0
1979-07-06 12:04:18.180 ,5,0,4.,12.0,0.,12.0,0.,12.0,0.,12.0
1979-07-06 12:04:30.180 ,5,0,3.,12.0,0.,12.0,0.,12.0,0.,12.0
1979-07-06 12:04:42.180 ,5,0,3.,12.0,0.,12.0,0.,12.0,0.,12.0
1979-07-06 12:04:54.180 ,6,0,8.,12.0,0.,12.0,0.,12.0,0.,12.0
1979-07-06 12:05:06.180 ,6,0,2.,12.0,0.,12.0,0.,12.0,0.,12.0
1979-07-06 12:05:18.180 ,6,0,4.,12.0,0.,12.0,0.,12.0,0.,12.0
1979-07-06 12:05:30.180 ,6,0,3.,12.0,0.,12.0,0.,12.0,0.,12.0
1979-07-06 12:05:42.180 ,7,0,2.,12.0,0.,12.0,0.,12.0,0.,12.0
1979-07-06 12:05:54.180 ,7,0,0.,12.0,0.,12.0,0.,12.0,0.,12.0
1979-07-06 12:06:06.180 ,7,0,0.,12.0,0.,12.0,0.,12.0,0.,12.0
1979-07-06 12:06:18.180 ,7,0,0.,12.0,0.,12.0,0.,12.0,0.,12.0
1979-07-06 12:06:30.180 ,7,0,0.,12.0,0.,12.0,0.,12.0,0.,12.0
1979-07-06 12:06:42.180 ,7,0,0.,12.0,0.,12.0,0.,12.0,0.,12.0
1979-07-06 12:06:54.180 ,7,0,0.,12.0,0.,12.0,0.,12.0,0.,12.0
1979-07-06 12:07:06.180 ,7,0,0.,12.0,0.,12.0,0.,12.0,0.,12.0
1979-07-06 12:07:18.180 ,6,0,0.,12.0,0.,12.0,0.,12.0,0.,12.0
1979-07-06 12:07:30.180 ,6,0,2.,12.0,0.,12.0,0.,12.0,0.,12.0
1979-07-06 12:07:42.180 ,6,0,3.,12.0,0.,12.0,0.,12.0,0.,12.0
1979-07-06 12:07:54.180 ,6,0,2.,12.0,0.,12.0,0.,12.0,0.,12.0
1979-07-06 12:08:06.180 ,5,0,4.,12.0,0.,12.0,0.,12.0,0.,12.0
1979-07-06 12:08:18.180 ,5,0,5.,12.0,0.,12.0,0.,12.0,0.,12.0
1979-07-06 12:08:30.180 ,5,0,1.,12.0,0.,12.0,0.,12.0,0.,12.0
1979-07-06 12:08:42.180 ,5,0,5.,12.0,0.,12.0,0.,12.0,0.,12.0
1979-07-06 12:08:54.180 ,4,0,4.,12.0,0.,12.0,0.,12.0,0.,12.0
1979-07-06 12:09:06.180 ,4,0,2.,12.0,0.,12.0,0.,12.0,0.,12.0
1979-07-06 12:09:18.180 ,4,0,1.,12.0,0.,12.0,0.,12.0,0.,12.0
1979-07-06 12:09:30.180 ,4,0,5.,12.0,0.,12.0,0.,12.0,0.,12.0
1979-07-06 12:09:42.180 ,3,0,3.,12.0,0.,12.0,0.,12.0,0.,12.0
1979-07-06 12:09:54.180 ,3,0,3.,12.0,0.,12.0,0.,12.0,0.,12.0
1979-07-06 12:10:06.180 ,3,0,1.,12.0,0.,12.0,0.,12.0,0.,12.0
1979-07-06 12:10:18.180 ,3,0,4.,12.0,0.,12.0,0.,12.0,0.,12.0
1979-07-06 12:10:30.180 ,2,0,0.,12.0,0.,12.0,0.,12.0,0.,12.0
1979-07-06 12:10:42.180 ,2,0,1.,12.0,0.,12.0,0.,12.0,0.,12.0
1979-07-06 12:10:54.180 ,2,0,1.,12.0,0.,12.0,0.,12.0,0.,12.0
1979-07-06 12:11:06.180 ,2,0,1.,12.0,0.,12.0,0.,12.0,0.,12.0
1979-07-06 12:11:18.180 ,1,0,1.,12.0,0.,12.0,0.,12.0,0.,12.0
1979-07-06 12:11:30.180 ,1,0,3.,12.0,0.,12.0,0.,12.0,0.,12.0
1979-07-06 12:11:42.180 ,1,0,1.,12.0,0.,12.0,0.,12.0,0.,12.0
1979-07-06 12:11:54.180 ,1,0,0.,12.0,0.,12.0,0.,12.0,0.,12.0
1979-07-06 12:12:06.180 ,0,0,1.,12.0,0.,12.0,0.,12.0,0.,12.0
1979-07-06 12:12:18.180 ,0,0,1.,12.0,0.,12.0,0.,12.0,0.,12.0
1979-07-06 12:12:30.180 ,0,0,1.,12.0,0.,12.0,0.,12.0,0.,12.0
1979-07-06 12:12:42.180 ,0,0,2.,12.0,0.,12.0,0.,12.0,0.,12.0
1979-07-06 12:12:54.170 ,0,0,1.,12.0,0.,12.0,0.,12.0,0.,12.0
1979-07-06 12:13:06.170 ,0,0,1.,12.0,0.,12.0,0.,12.0,0.,12.0
1979-07-06 12:13:18.170 ,0,0,1.,12.0,0.,12.0,0.,12.0,0.,12.0
1979-07-06 12:13:30.170 ,0,0,1.,12.0,0.,12.0,0.,12.0,0.,12.0
1979-07-06 12:13:42.170 ,1,0,0.,12.0,0.,12.0,0.,12.0,0.,12.0
1979-07-06 12:13:54.170 ,1,0,1.,12.0,0.,12.0,0.,12.0,0.,12.0
1979-07-06 12:14:06.170 ,1,0,1.,12.0,0.,12.0,0.,12.0,0.,12.0
1979-07-06 12:14:18.170 ,1,0,1.,12.0,0.,12.0,0.,12.0,0.,12.0
1979-07-06 12:14:30.170 ,2,0,1.,12.0,0.,12.0,0.,12.0,0.,12.0
1979-07-06 12:14:42.170 ,2,0,1.,12.0,0.,12.0,0.,12.0,0.,12.0
1979-07-06 12:14:54.170 ,2,0,0.,12.0,0.,12.0,0.,12.0,0.,12.0
1979-07-06 12:15:06.170 ,2,0,2.,12.0,0.,12.0,0.,12.0,0.,12.0
1979-07-06 12:15:18.170 ,3,0,1.,12.0,0.,12.0,0.,12.0,0.,12.0
1979-07-06 12:15:30.170 ,3,0,5.,12.0,0.,12.0,0.,12.0,0.,12.0
1979-07-06 12:15:42.170 ,3,0,5.,12.0,0.,12.0,0.,12.0,0.,12.0
1979-07-06 12:15:54.170 ,3,0,2.,12.0,0.,12.0,0.,12.0,0.,12.0
1979-07-06 12:16:06.170 ,4,0,2.,12.0,0.,12.0,0.,12.0,0.,12.0
1979-07-06 12:16:18.170 ,4,0,3.,12.0,0.,12.0,0.,12.0,0.,12.0
1979-07-06 12:16:30.170 ,4,0,5.,12.0,0.,12.0,0.,12.0,0.,12.0
1979-07-06 12:16:42.170 ,4,0,6.,12.0,0.,12.0,0.,12.0,0.,12.0
1979-07-06 12:16:54.170 ,5,0,3.,12.0,0.,12.0,0.,12.0,0.,12.0
1979-07-06 12:17:06.180 ,5,0,8.,12.0,0.,12.0,0.,12.0,0.,12.0
1979-07-06 12:17:18.180 ,5,0,6.,12.0,0.,12.0,0.,12.0,0.,12.0
1979-07-06 12:17:30.180 ,5,0,8.,12.0,0.,12.0,0.,12.0,0.,12.0
1979-07-06 12:17:42.180 ,6,0,9.,12.0,0.,12.0,0.,12.0,0.,12.0
1979-07-06 12:17:54.180 ,6,0,0.,12.0,0.,12.0,0.,12.0,0.,12.0
1979-07-06 12:18:06.180 ,6,0,6.,12.0,0.,12.0,0.,12.0,0.,12.0
1979-07-06 12:18:18.180 ,6,0,6.,12.0,0.,12.0,0.,12.0,0.,12.0
1979-07-06 12:18:30.180 ,7,0,4.,12.0,0.,12.0,0.,12.0,0.,12.0
1979-07-06 12:18:42.180 ,7,0,0.,12.0,0.,12.0,0.,12.0,0.,12.0
1979-07-06 12:18:54.180 ,7,0,0.,12.0,0.,12.0,0.,12.0,0.,12.0
1979-07-06 12:19:06.180 ,7,0,0.,12.0,0.,12.0,0.,12.0,0.,12.0
1979-07-06 12:19:18.180 ,3,1,7.,12.0,0.,12.0,0.,12.0,0.,12.0
1979-07-06 12:19:30.180 ,3,1,7.,12.0,0.,12.0,0.,12.0,0.,12.0
1979-07-06 12:19:42.180 ,0,1,3.,12.0,0.,12.0,0.,12.0,0.,12.0
1979-07-06 12:19:54.180 ,0,1,2.,12.0,0.,12.0,0.,12.0,0.,12.0
1979-07-06 12:20:06.180 ,4,1,0.,12.0,0.,12.0,0.,12.0,0.,12.0
1979-07-06 12:20:18.180 ,4,1,2.,12.0,0.,12.0,0.,12.0,0.,12.0
1979-07-06 12:20:30.180 ,7,1,5.,12.0,0.,12.0,0.,12.0,0.,12.0
1979-07-06 12:20:42.180 ,7,1,2.,12.0,0.,12.0,0.,12.0,0.,12.0
1979-07-06 12:20:54.180 ,3,1,2.,12.0,0.,12.0,0.,12.0,0.,12.0
1979-07-06 12:21:06.180 ,3,1,12.,12.0,0.,12.0,0.,12.0,0.,12.0
1979-07-06 12:21:18.180 ,0,1,1.,12.0,0.,12.0,0.,12.0,0.,12.0
1979-07-06 12:21:30.180 ,0,1,4.,12.0,0.,12.0,0.,12.0,0.,12.0
1979-07-06 12:21:42.180 ,4,1,0.,12.0,0.,12.0,0.,12.0,0.,12.0
1979-07-06 12:21:54.180 ,4,1,1.,12.0,0.,12.0,0.,12.0,0.,12.0
1979-07-06 12:22:06.180 ,7,1,2.,12.0,0.,12.0,0.,12.0,0.,12.0
1979-07-06 12:22:18.180 ,7,1,2.,12.0,0.,12.0,0.,12.0,0.,12.0
1979-07-06 12:22:30.180 ,3,1,1.,12.0,0.,12.0,0.,12.0,0.,12.0
1979-07-06 12:22:42.180 ,3,1,5.,12.0,0.,12.0,0.,12.0,0.,12.0
1979-07-06 12:22:54.180 ,0,1,2.,12.0,0.,12.0,0.,12.0,0.,12.0
1979-07-06 12:23:06.180 ,0,1,0.,12.0,0.,12.0,0.,12.0,0.,12.0
1979-07-06 12:23:18.180 ,4,1,4.,12.0,0.,12.0,0.,12.0,0.,12.0
1979-07-06 12:23:30.180 ,4,1,5.,12.0,0.,12.0,0.,12.0,0.,12.0
1979-07-06 12:23:42.180 ,7,1,7.,12.0,0.,12.0,0.,12.0,0.,12.0
1979-07-06 12:23:54.180 ,7,1,3.,12.0,0.,12.0,0.,12.0,0.,12.0
1979-07-06 12:24:06.180 ,3,1,1.,12.0,0.,12.0,0.,12.0,0.,12.0
1979-07-06 12:24:18.180 ,3,1,1.,12.0,0.,12.0,0.,12.0,0.,12.0
1979-07-06 12:24:30.180 ,0,1,2.,12.0,0.,12.0,0.,12.0,0.,12.0
1979-07-06 12:24:42.180 ,0,1,0.,12.0,0.,12.0,0.,12.0,0.,12.0
1979-07-06 12:24:54.180 ,4,1,3.,12.0,0.,12.0,0.,12.0,0.,12.0
1979-07-06 12:25:06.180 ,4,1,3.,12.0,0.,12.0,0.,12.0,0.,12.0
1979-07-06 12:25:18.180 ,7,1,3.,12.0,0.,12.0,0.,12.0,0.,12.0
1979-07-06 12:25:30.180 ,7,1,1.,12.0,0.,12.0,0.,12.0,0.,12.0
1979-07-06 12:25:42.180 ,3,1,2.,12.0,0.,12.0,0.,12.0,0.,12.0
1979-07-06 12:25:54.180 ,3,1,4.,12.0,0.,12.0,0.,12.0,0.,12.0
1979-07-06 12:26:06.180 ,0,1,3.,12.0,0.,12.0,0.,12.0,0.,12.0
1979-07-06 12:26:18.180 ,0,1,0.,12.0,0.,12.0,0.,12.0,0.,12.0
1979-07-06 12:26:30.180 ,4,1,1.,12.0,0.,12.0,0.,12.0,0.,12.0
1979-07-06 12:26:42.180 ,4,1,4.,12.0,0.,12.0,0.,12.0,0.,12.0
1979-07-06 12:26:54.180 ,7,1,6.,12.0,0.,12.0,0.,12.0,0.,12.0
1979-07-06 12:27:06.180 ,7,1,2.,12.0,0.,12.0,0.,12.0,0.,12.0
1979-07-06 12:27:18.180 ,3,1,1.,12.0,0.,12.0,0.,12.0,0.,12.0
1979-07-06 12:27:30.180 ,3,1,2.,12.0,0.,12.0,0.,12.0,0.,12.0
1979-07-06 12:27:42.180 ,0,1,3.,12.0,0.,12.0,0.,12.0,0.,12.0
1979-07-06 12:27:54.180 ,0,1,1.,12.0,0.,12.0,0.,12.0,0.,12.0
1979-07-06 12:28:06.180 ,4,1,0.,12.0,0.,12.0,0.,12.0,0.,12.0
1979-07-06 12:28:18.180 ,4,1,3.,12.0,0.,12.0,0.,12.0,0.,12.0
1979-07-06 12:28:30.180 ,7,1,3.,12.0,0.,12.0,0.,12.0,0.,12.0
1979-07-06 12:28:42.180 ,7,1,1.,12.0,0.,12.0,0.,12.0,0.,12.0
1979-07-06 12:28:54.180 ,3,1,2.,12.0,0.,12.0,0.,12.0,0.,12.0
1979-07-06 12:29:06.180 ,3,1,5.,12.0,0.,12.0,0.,12.0,0.,12.0
1979-07-06 12:29:18.180 ,0,1,1.,12.0,0.,12.0,0.,12.0,0.,12.0
1979-07-06 12:29:30.180 ,0,1,2.,12.0,0.,12.0,0.,12.0,0.,12.0
1979-07-06 12:29:42.180 ,0,0,2.,12.0,0.,12.0,0.,12.0,0.,12.0
1979-07-06 12:29:54.180 ,0,0,4.,12.0,0.,12.0,0.,12.0,0.,12.0
1979-07-06 12:30:06.180 ,0,0,8.,12.0,0.,12.0,0.,12.0,0.,12.0
1979-07-06 12:30:18.180 ,0,0,2.,12.0,0.,12.0,0.,12.0,0.,12.0
1979-07-06 12:30:30.180 ,5,0,1.,12.0,0.,12.0,0.,12.0,0.,12.0
1979-07-06 12:30:42.180 ,5,0,5.,12.0,0.,12.0,0.,12.0,0.,12.0
1979-07-06 12:30:54.180 ,5,0,3.,12.0,0.,12.0,0.,12.0,0.,12.0
1979-07-06 12:31:06.180 ,5,0,8.,12.0,0.,12.0,0.,12.0,0.,12.0
1979-07-06 12:31:18.180 ,4,0,7.,12.0,0.,12.0,0.,12.0,0.,12.0
1979-07-06 12:31:30.180 ,4,0,5.,12.0,0.,12.0,0.,12.0,0.,12.0
1979-07-06 12:31:42.180 ,4,0,3.,12.0,0.,12.0,0.,12.0,0.,12.0
1979-07-06 12:31:54.180 ,4,0,3.,12.0,0.,12.0,0.,12.0,0.,12.0
1979-07-06 12:32:06.180 ,3,0,7.,12.0,0.,12.0,0.,12.0,0.,12.0
1979-07-06 12:32:18.180 ,3,0,6.,12.0,0.,12.0,0.,12.0,0.,12.0
1979-07-06 12:32:30.180 ,3,0,5.,12.0,0.,12.0,0.,12.0,0.,12.0
1979-07-06 12:32:42.180 ,3,0,4.,12.0,0.,12.0,0.,12.0,0.,12.0
1979-07-06 12:32:54.180 ,2,0,1.,12.0,0.,12.0,0.,12.0,0.,12.0
1979-07-06 12:33:06.180 ,2,0,0.,12.0,0.,12.0,0.,12.0,0.,12.0
1979-07-06 12:33:18.180 ,2,0,1.,12.0,0.,12.0,0.,12.0,0.,12.0
1979-07-06 12:33:30.180 ,2,0,2.,12.0,0.,12.0,0.,12.0,0.,12.0
1979-07-06 12:33:42.180 ,1,0,0.,12.0,0.,12.0,0.,12.0,0.,12.0
1979-07-06 12:33:54.180 ,1,0,1.,12.0,0.,12.0,0.,12.0,0.,12.0
1979-07-06 12:34:06.180 ,1,0,1.,12.0,0.,12.0,0.,12.0,0.,12.0
1979-07-06 12:34:18.180 ,1,0,0.,12.0,0.,12.0,0.,12.0,0.,12.0
1979-07-06 12:34:30.180 ,0,0,2.,12.0,0.,12.0,0.,12.0,0.,12.0
1979-07-06 12:34:42.180 ,0,0,1.,12.0,0.,12.0,0.,12.0,0.,12.0
1979-07-06 12:34:54.180 ,0,0,2.,12.0,0.,12.0,0.,12.0,0.,12.0
1979-07-06 12:35:06.180 ,0,0,1.,12.0,0.,12.0,0.,12.0,0.,12.0
1979-07-06 12:35:18.170 ,0,0,0.,12.0,0.,12.0,0.,12.0,0.,12.0
1979-07-06 12:35:30.170 ,0,0,1.,12.0,0.,12.0,0.,12.0,0.,12.0
1979-07-06 12:35:42.170 ,0,0,1.,12.0,0.,12.0,0.,12.0,0.,12.0
1979-07-06 12:35:54.170 ,0,0,2.,12.0,0.,12.0,0.,12.0,0.,12.0
1979-07-06 12:36:06.170 ,1,0,1.,12.0,0.,12.0,0.,12.0,0.,12.0
1979-07-06 12:36:18.170 ,1,0,0.,12.0,0.,12.0,0.,12.0,0.,12.0
1979-07-06 12:36:30.170 ,1,0,1.,12.0,0.,12.0,0.,12.0,0.,12.0
1979-07-06 12:36:42.170 ,1,0,0.,12.0,0.,12.0,0.,12.0,0.,12.0
1979-07-06 12:36:54.170 ,2,0,0.,12.0,0.,12.0,0.,12.0,0.,12.0
1979-07-06 12:37:06.170 ,2,0,1.,12.0,0.,12.0,0.,12.0,0.,12.0
1979-07-06 12:37:18.170 ,2,0,5.,12.0,0.,12.0,0.,12.0,0.,12.0
1979-07-06 12:37:30.170 ,2,0,2.,12.0,0.,12.0,0.,12.0,0.,12.0
1979-07-06 12:37:42.170 ,3,0,1.,12.0,0.,12.0,0.,12.0,0.,12.0
1979-07-06 12:37:54.170 ,3,0,0.,12.0,0.,12.0,0.,12.0,0.,12.0
1979-07-06 12:38:06.170 ,3,0,3.,12.0,0.,12.0,0.,12.0,0.,12.0
1979-07-06 12:38:18.170 ,3,0,6.,12.0,0.,12.0,0.,12.0,0.,12.0
1979-07-06 12:38:30.170 ,4,0,4.,12.0,0.,12.0,0.,12.0,0.,12.0
1979-07-06 12:38:42.170 ,4,0,4.,12.0,0.,12.0,0.,12.0,0.,12.0
1979-07-06 12:38:54.170 ,4,0,1.,12.0,0.,12.0,0.,12.0,0.,12.0
1979-07-06 12:39:06.170 ,4,0,3.,12.0,0.,12.0,0.,12.0,0.,12.0
1979-07-06 12:39:18.170 ,5,0,1.,12.0,0.,12.0,0.,12.0,0.,12.0
1979-07-06 12:39:30.170 ,5,0,4.,12.0,0.,12.0,0.,12.0,0.,12.0
1979-07-06 12:39:42.170 ,5,0,5.,12.0,0.,12.0,0.,12.0,0.,12.0
1979-07-06 12:39:54.170 ,5,0,2.,12.0,0.,12.0,0.,12.0,0.,12.0
1979-07-06 12:40:06.170 ,6,0,2.,12.0,0.,12.0,0.,12.0,0.,12.0
1979-07-06 12:40:18.170 ,6,0,6.,12.0,0.,12.0,0.,12.0,0.,12.0
1979-07-06 12:40:30.170 ,6,0,0.,12.0,0.,12.0,0.,12.0,0.,12.0
1979-07-06 12:40:42.170 ,6,0,2.,12.0,0.,12.0,0.,12.0,0.,12.0
1979-07-06 12:40:54.170 ,7,0,1.,12.0,0.,12.0,0.,12.0,0.,12.0
1979-07-06 12:41:06.170 ,7,0,0.,12.0,0.,12.0,0.,12.0,0.,12.0
1979-07-06 12:41:18.170 ,7,0,0.,12.0,0.,12.0,0.,12.0,0.,12.0
1979-07-06 12:41:30.170 ,7,0,0.,12.0,0.,12.0,0.,12.0,0.,12.0
1979-07-06 12:41:42.170 ,7,0,0.,12.0,0.,12.0,0.,12.0,0.,12.0
1979-07-06 12:41:54.170 ,7,0,0.,12.0,0.,12.0,0.,12.0,0.,12.0
1979-07-06 12:42:06.170 ,7,0,0.,12.0,0.,12.0,0.,12.0,0.,12.0
1979-07-06 12:42:18.170 ,7,0,0.,12.0,0.,12.0,0.,12.0,0.,12.0
1979-07-06 12:42:30.170 ,6,0,0.,12.0,0.,12.0,0.,12.0,0.,12.0
1979-07-06 12:42:42.170 ,6,0,3.,12.0,0.,12.0,0.,12.0,0.,12.0
1979-07-06 12:42:54.170 ,6,0,2.,12.0,0.,12.0,0.,12.0,0.,12.0
1979-07-06 12:43:06.170 ,6,0,0.,12.0,0.,12.0,0.,12.0,0.,12.0
1979-07-06 12:43:18.170 ,5,0,1.,12.0,0.,12.0,0.,12.0,0.,12.0
1979-07-06 12:43:30.170 ,5,0,0.,12.0,0.,12.0,0.,12.0,0.,12.0
1979-07-06 12:43:42.170 ,5,0,1.,12.0,0.,12.0,0.,12.0,0.,12.0
1979-07-06 12:43:54.170 ,5,0,3.,12.0,0.,12.0,0.,12.0,0.,12.0
1979-07-06 12:44:06.170 ,4,0,4.,12.0,0.,12.0,0.,12.0,0.,12.0
1979-07-06 12:44:18.170 ,4,0,4.,12.0,0.,12.0,0.,12.0,0.,12.0
1979-07-06 12:44:30.170 ,4,0,4.,12.0,0.,12.0,0.,12.0,0.,12.0
1979-07-06 12:44:42.170 ,4,0,2.,12.0,0.,12.0,0.,12.0,0.,12.0
1979-07-06 12:44:54.170 ,3,0,1.,12.0,0.,12.0,0.,12.0,0.,12.0
1979-07-06 12:45:06.170 ,3,0,3.,12.0,0.,12.0,0.,12.0,0.,12.0
1979-07-06 12:45:18.170 ,3,0,1.,12.0,0.,12.0,0.,12.0,0.,12.0
1979-07-06 12:45:30.170 ,3,0,1.,12.0,0.,12.0,0.,12.0,0.,12.0
1979-07-06 12:45:42.170 ,2,0,2.,12.0,0.,12.0,0.,12.0,0.,12.0
1979-07-06 12:45:54.170 ,2,0,3.,12.0,0.,12.0,0.,12.0,0.,12.0
1979-07-06 12:46:06.170 ,2,0,1.,12.0,0.,12.0,0.,12.0,0.,12.0
1979-07-06 12:46:18.170 ,2,0,0.,12.0,0.,12.0,0.,12.0,0.,12.0
1979-07-06 12:46:30.170 ,1,0,0.,12.0,0.,12.0,0.,12.0,0.,12.0
1979-07-06 12:46:42.170 ,1,0,3.,12.0,0.,12.0,0.,12.0,0.,12.0
1979-07-06 12:46:54.170 ,1,0,0.,12.0,0.,12.0,0.,12.0,0.,12.0
1979-07-06 12:47:06.170 ,1,0,2.,12.0,0.,12.0,0.,12.0,0.,12.0
1979-07-06 12:47:18.170 ,0,0,2.,12.0,0.,12.0,0.,12.0,0.,12.0
1979-07-06 12:47:30.170 ,0,0,0.,12.0,0.,12.0,0.,12.0,0.,12.0
1979-07-06 12:47:42.170 ,0,0,0.,12.0,0.,12.0,0.,12.0,0.,12.0
1979-07-06 12:47:54.170 ,0,0,0.,12.0,0.,12.0,0.,12.0,0.,12.0
1979-07-06 12:48:06.170 ,0,0,0.,12.0,0.,12.0,0.,12.0,0.,12.0
1979-07-06 12:48:18.170 ,0,0,0.,12.0,0.,12.0,0.,12.0,0.,12.0
1979-07-06 12:48:30.170 ,0,0,2.,12.0,0.,12.0,0.,12.0,0.,12.0
1979-07-06 12:48:42.170 ,0,0,0.,12.0,0.,12.0,0.,12.0,0.,12.0
1979-07-06 12:48:54.170 ,1,0,0.,12.0,0.,12.0,0.,12.0,0.,12.0
1979-07-06 12:49:06.170 ,1,0,3.,12.0,0.,12.0,0.,12.0,0.,12.0
1979-07-06 12:49:18.170 ,1,0,1.,12.0,0.,12.0,0.,12.0,0.,12.0
1979-07-06 12:49:30.170 ,1,0,0.,12.0,0.,12.0,0.,12.0,0.,12.0
1979-07-06 12:49:42.170 ,2,0,1.,12.0,0.,12.0,0.,12.0,0.,12.0
1979-07-06 12:49:54.170 ,2,0,0.,12.0,0.,12.0,0.,12.0,0.,12.0
1979-07-06 12:50:06.170 ,2,0,1.,12.0,0.,12.0,0.,12.0,0.,12.0
1979-07-06 12:50:18.170 ,2,0,1.,12.0,0.,12.0,0.,12.0,0.,12.0
1979-07-06 12:50:30.170 ,3,0,1.,12.0,0.,12.0,0.,12.0,0.,12.0
1979-07-06 12:50:42.170 ,3,0,2.,12.0,0.,12.0,0.,12.0,0.,12.0
1979-07-06 12:50:54.170 ,3,0,1.,12.0,0.,12.0,0.,12.0,0.,12.0
1979-07-06 12:51:06.170 ,3,0,1.,12.0,0.,12.0,0.,12.0,0.,12.0
1979-07-06 12:51:18.170 ,4,0,4.,12.0,0.,12.0,0.,12.0,0.,12.0
1979-07-06 12:51:30.170 ,4,0,4.,12.0,0.,12.0,0.,12.0,0.,12.0
1979-07-06 12:51:42.170 ,4,0,2.,12.0,0.,12.0,0.,12.0,0.,12.0
1979-07-06 12:51:54.170 ,4,0,4.,12.0,0.,12.0,0.,12.0,0.,12.0
1979-07-06 12:52:06.170 ,5,0,2.,12.0,0.,12.0,0.,12.0,0.,12.0
1979-07-06 12:52:18.170 ,5,0,5.,12.0,0.,12.0,0.,12.0,0.,12.0
1979-07-06 12:52:30.170 ,5,0,3.,12.0,0.,12.0,0.,12.0,0.,12.0
1979-07-06 12:52:42.170 ,5,0,2.,12.0,0.,12.0,0.,12.0,0.,12.0
1979-07-06 12:52:54.170 ,6,0,6.,12.0,0.,12.0,0.,12.0,0.,12.0
1979-07-06 12:53:06.170 ,6,0,2.,12.0,0.,12.0,0.,12.0,0.,12.0
1979-07-06 12:53:18.170 ,6,0,2.,12.0,0.,12.0,0.,12.0,0.,12.0
1979-07-06 12:53:30.170 ,6,0,2.,12.0,0.,12.0,0.,12.0,0.,12.0
1979-07-06 12:53:42.170 ,7,0,1.,12.0,0.,12.0,0.,12.0,0.,12.0
1979-07-06 12:53:54.170 ,7,0,0.,12.0,0.,12.0,0.,12.0,0.,12.0
1979-07-06 12:54:06.170 ,7,0,0.,12.0,0.,12.0,0.,12.0,0.,12.0
1979-07-06 12:54:18.170 ,7,0,0.,12.0,0.,12.0,0.,12.0,0.,12.0
1979-07-06 12:54:30.170 ,7,0,0.,12.0,0.,12.0,0.,12.0,0.,12.0
1979-07-06 12:54:42.170 ,7,0,0.,12.0,0.,12.0,0.,12.0,0.,12.0
1979-07-06 12:54:54.170 ,7,0,0.,12.0,0.,12.0,0.,12.0,0.,12.0
1979-07-06 12:55:06.170 ,7,0,0.,12.0,0.,12.0,0.,12.0,0.,12.0
1979-07-06 12:55:18.170 ,6,0,1.,12.0,0.,12.0,0.,12.0,0.,12.0
1979-07-06 12:55:30.170 ,6,0,3.,12.0,0.,12.0,0.,12.0,0.,12.0
1979-07-06 12:55:42.170 ,6,0,3.,12.0,0.,12.0,0.,12.0,0.,12.0
1979-07-06 12:55:54.170 ,6,0,5.,12.0,0.,12.0,0.,12.0,0.,12.0
1979-07-06 12:56:06.170 ,5,0,4.,12.0,0.,12.0,0.,12.0,0.,12.0
1979-07-06 12:56:18.170 ,5,0,2.,12.0,0.,12.0,0.,12.0,0.,12.0
1979-07-06 12:56:30.170 ,5,0,2.,12.0,0.,12.0,0.,12.0,0.,12.0
1979-07-06 12:56:42.170 ,5,0,4.,12.0,0.,12.0,0.,12.0,0.,12.0
1979-07-06 12:56:54.170 ,4,0,3.,12.0,0.,12.0,0.,12.0,0.,12.0
1979-07-06 12:57:06.170 ,4,0,4.,12.0,0.,12.0,0.,12.0,0.,12.0
1979-07-06 12:57:18.170 ,4,0,7.,12.0,0.,12.0,0.,12.0,0.,12.0
1979-07-06 12:57:30.170 ,4,0,3.,12.0,1.,12.0,0.,12.0,0.,12.0
1979-07-06 12:57:42.170 ,3,0,3.,12.0,0.,12.0,0.,12.0,0.,12.0
1979-07-06 12:57:54.170 ,3,0,1.,12.0,0.,12.0,0.,12.0,0.,12.0
1979-07-06 12:58:06.170 ,3,0,3.,12.0,0.,12.0,0.,12.0,0.,12.0
1979-07-06 12:58:18.170 ,3,0,1.,12.0,0.,12.0,0.,12.0,0.,12.0
1979-07-06 12:58:30.170 ,2,0,2.,12.0,0.,12.0,0.,12.0,0.,12.0
1979-07-06 12:58:42.170 ,2,0,3.,12.0,0.,12.0,0.,12.0,0.,12.0
1979-07-06 12:58:54.170 ,2,0,0.,12.0,0.,12.0,0.,12.0,0.,12.0
1979-07-06 12:59:06.170 ,2,0,2.,12.0,0.,12.0,0.,12.0,0.,12.0
1979-07-06 12:59:18.170 ,1,0,2.,12.0,0.,12.0,0.,12.0,0.,12.0
1979-07-06 12:59:30.170 ,1,0,3.,12.0,0.,12.0,0.,12.0,0.,12.0
1979-07-06 12:59:42.170 ,1,0,3.,12.0,0.,12.0,0.,12.0,0.,12.0
1979-07-06 12:59:54.170 ,1,0,3.,12.0,0.,12.0,0.,12.0,0.,12.0
1979-07-06 13:00:06.170 ,0,0,3.,12.0,0.,12.0,0.,12.0,0.,12.0
1979-07-06 13:00:18.170 ,0,0,1.,12.0,0.,12.0,0.,12.0,0.,12.0
1979-07-06 13:00:30.170 ,0,0,3.,12.0,0.,12.0,0.,12.0,0.,12.0
1979-07-06 13:00:42.170 ,0,0,0.,12.0,0.,12.0,0.,12.0,0.,12.0
1979-07-06 13:00:54.170 ,0,0,3.,12.0,0.,12.0,0.,12.0,0.,12.0
1979-07-06 13:01:06.170 ,0,0,1.,12.0,0.,12.0,0.,12.0,0.,12.0
1979-07-06 13:01:18.170 ,0,0,0.,12.0,0.,12.0,0.,12.0,0.,12.0
1979-07-06 13:01:30.170 ,0,0,0.,12.0,0.,12.0,0.,12.0,0.,12.0
1979-07-06 13:01:42.170 ,1,0,1.,12.0,0.,12.0,0.,12.0,0.,12.0
1979-07-06 13:01:54.170 ,1,0,0.,12.0,0.,12.0,0.,12.0,0.,12.0
1979-07-06 13:02:06.170 ,1,0,2.,12.0,0.,12.0,0.,12.0,0.,12.0
1979-07-06 13:02:18.170 ,1,0,0.,12.0,0.,12.0,0.,12.0,0.,12.0
1979-07-06 13:02:30.170 ,2,0,1.,12.0,0.,12.0,0.,12.0,0.,12.0
1979-07-06 13:02:42.170 ,2,0,1.,12.0,0.,12.0,0.,12.0,0.,12.0
1979-07-06 13:02:54.170 ,2,0,0.,12.0,0.,12.0,0.,12.0,0.,12.0
1979-07-06 13:03:06.170 ,2,0,1.,12.0,0.,12.0,0.,12.0,0.,12.0
1979-07-06 13:03:18.170 ,3,0,1.,12.0,0.,12.0,0.,12.0,0.,12.0
1979-07-06 13:03:30.170 ,3,0,2.,12.0,0.,12.0,0.,12.0,0.,12.0
1979-07-06 13:03:42.170 ,3,0,3.,12.0,0.,12.0,0.,12.0,0.,12.0
1979-07-06 13:03:54.170 ,3,0,2.,12.0,0.,12.0,0.,12.0,0.,12.0
1979-07-06 13:04:06.170 ,4,0,0.,12.0,0.,12.0,0.,12.0,0.,12.0
1979-07-06 13:04:18.170 ,4,0,1.,12.0,0.,12.0,0.,12.0,0.,12.0
1979-07-06 13:04:30.170 ,4,0,1.,12.0,0.,12.0,0.,12.0,0.,12.0
1979-07-06 13:04:42.170 ,4,0,2.,12.0,0.,12.0,0.,12.0,0.,12.0
1979-07-06 13:04:54.170 ,5,0,2.,12.0,0.,12.0,0.,12.0,0.,12.0
1979-07-06 13:05:06.170 ,5,0,3.,12.0,0.,12.0,0.,12.0,0.,12.0
1979-07-06 13:05:18.170 ,5,0,6.,12.0,0.,12.0,0.,12.0,0.,12.0
1979-07-06 13:05:30.170 ,5,0,6.,12.0,0.,12.0,0.,12.0,0.,12.0
1979-07-06 13:05:42.170 ,6,0,1.,12.0,0.,12.0,0.,12.0,0.,12.0
1979-07-06 13:05:54.170 ,6,0,3.,12.0,0.,12.0,0.,12.0,0.,12.0
1979-07-06 13:06:06.170 ,6,0,5.,12.0,0.,12.0,0.,12.0,0.,12.0
1979-07-06 13:06:18.170 ,6,0,2.,12.0,0.,12.0,0.,12.0,0.,12.0
1979-07-06 13:06:06.170 ,6,0,5.,12.0,0.,12.0,0.,12.0,0.,12.0
1979-07-06 13:06:18.170 ,6,0,2.,12.0,0.,12.0,0.,12.0,0.,12.0
1979-07-06 13:06:30.170 ,7,0,2.,12.0,0.,12.0,0.,12.0,0.,12.0
1979-07-06 13:06:42.170 ,7,0,0.,12.0,0.,12.0,0.,12.0,0.,12.0
1979-07-06 13:06:54.170 ,7,0,0.,12.0,0.,12.0,0.,12.0,0.,12.0
1979-07-06 13:07:06.170 ,7,0,0.,12.0,0.,12.0,0.,12.0,0.,12.0
1979-07-06 13:07:18.170 ,3,1,2.,12.0,0.,12.0,0.,12.0,0.,12.0
1979-07-06 13:07:30.170 ,3,1,2.,12.0,0.,12.0,0.,12.0,0.,12.0
1979-07-06 13:07:42.170 ,0,1,0.,12.0,0.,12.0,0.,12.0,0.,12.0
1979-07-06 13:07:54.170 ,0,1,0.,12.0,0.,12.0,0.,12.0,0.,12.0
1979-07-06 13:08:06.170 ,4,1,0.,12.0,0.,12.0,0.,12.0,0.,12.0
1979-07-06 13:08:18.170 ,4,1,1.,12.0,0.,12.0,0.,12.0,0.,12.0
1979-07-06 13:08:30.170 ,7,1,4.,12.0,0.,12.0,0.,12.0,0.,12.0
1979-07-06 13:08:42.170 ,7,1,0.,12.0,0.,12.0,0.,12.0,0.,12.0
1979-07-06 13:08:54.170 ,3,1,4.,12.0,0.,12.0,0.,12.0,0.,12.0
1979-07-06 13:09:06.170 ,3,1,6.,12.0,0.,12.0,0.,12.0,0.,12.0
1979-07-06 13:09:18.170 ,0,1,1.,12.0,0.,12.0,0.,12.0,0.,12.0
1979-07-06 13:09:30.170 ,0,1,2.,12.0,0.,12.0,0.,12.0,0.,12.0
1979-07-06 13:09:42.170 ,4,1,0.,12.0,0.,12.0,0.,12.0,0.,12.0
1979-07-06 13:09:54.170 ,4,1,2.,12.0,0.,12.0,0.,12.0,0.,12.0
1979-07-06 13:10:06.170 ,7,1,4.,12.0,0.,12.0,0.,12.0,0.,12.0
1979-07-06 13:10:18.170 ,7,1,3.,12.0,0.,12.0,0.,12.0,0.,12.0
1979-07-06 13:10:30.170 ,3,1,3.,12.0,0.,12.0,0.,12.0,0.,12.0
1979-07-06 13:10:42.170 ,3,1,1.,12.0,0.,12.0,0.,12.0,0.,12.0
1979-07-06 13:10:54.170 ,0,1,2.,12.0,0.,12.0,0.,12.0,0.,12.0
1979-07-06 13:11:06.170 ,0,1,1.,12.0,0.,12.0,0.,12.0,0.,12.0
1979-07-06 13:11:18.170 ,4,1,2.,12.0,0.,12.0,0.,12.0,0.,12.0
1979-07-06 13:11:30.170 ,4,1,0.,12.0,0.,12.0,0.,12.0,0.,12.0
1979-07-06 13:11:42.170 ,7,1,4.,12.0,0.,12.0,0.,12.0,0.,12.0
1979-07-06 13:11:54.170 ,7,1,2.,12.0,0.,12.0,0.,12.0,0.,12.0
1979-07-06 13:12:06.170 ,3,1,0.,12.0,0.,12.0,0.,12.0,0.,12.0
1979-07-06 13:12:18.170 ,3,1,0.,12.0,0.,12.0,0.,12.0,0.,12.0
1979-07-06 13:12:30.170 ,0,1,3.,12.0,0.,12.0,0.,12.0,0.,12.0
1979-07-06 13:12:42.170 ,0,1,1.,12.0,0.,12.0,0.,12.0,0.,12.0
1979-07-06 13:12:54.170 ,4,1,1.,12.0,0.,12.0,0.,12.0,0.,12.0
1979-07-06 13:13:06.170 ,4,1,1.,12.0,0.,12.0,0.,12.0,0.,12.0
1979-07-06 13:13:18.170 ,7,1,3.,12.0,0.,12.0,0.,12.0,0.,12.0
1979-07-06 13:13:30.170 ,7,1,0.,12.0,0.,12.0,0.,12.0,0.,12.0
1979-07-06 13:13:42.170 ,3,1,2.,12.0,0.,12.0,0.,12.0,0.,12.0
1979-07-06 13:13:54.170 ,3,1,6.,12.0,0.,12.0,0.,12.0,0.,12.0
1979-07-06 13:14:06.170 ,0,1,1.,12.0,0.,12.0,0.,12.0,0.,12.0
1979-07-06 13:14:18.170 ,0,1,1.,12.0,0.,12.0,0.,12.0,0.,12.0
1979-07-06 13:14:30.170 ,4,1,1.,12.0,0.,12.0,0.,12.0,0.,12.0
1979-07-06 13:14:42.170 ,4,1,2.,12.0,0.,12.0,0.,12.0,0.,12.0
1979-07-06 13:14:54.170 ,7,1,2.,12.0,0.,12.0,0.,12.0,0.,12.0
1979-07-06 13:15:06.170 ,7,1,0.,12.0,0.,12.0,0.,12.0,0.,12.0
1979-07-06 13:15:18.170 ,3,1,1.,12.0,0.,12.0,0.,12.0,0.,12.0
1979-07-06 13:15:30.170 ,3,1,2.,12.0,0.,12.0,0.,12.0,0.,12.0
1979-07-06 13:15:42.170 ,0,1,0.,12.0,0.,12.0,0.,12.0,0.,12.0
1979-07-06 13:15:54.170 ,0,1,3.,12.0,0.,12.0,0.,12.0,0.,12.0
1979-07-06 13:16:06.170 ,4,1,3.,12.0,0.,12.0,0.,12.0,0.,12.0
1979-07-06 13:16:18.170 ,4,1,1.,12.0,0.,12.0,0.,12.0,0.,12.0
1979-07-06 13:16:30.170 ,7,1,3.,12.0,0.,12.0,0.,12.0,0.,12.0
1979-07-06 13:16:42.170 ,7,1,3.,12.0,0.,12.0,0.,12.0,0.,12.0
1979-07-06 13:16:54.170 ,3,1,2.,12.0,0.,12.0,0.,12.0,0.,12.0
1979-07-06 13:17:06.170 ,3,1,3.,12.0,0.,12.0,0.,12.0,0.,12.0